TimeCST,TemperatureF,Dew PointF,Humidity,Sea Level PressureIn,VisibilityMPH,Wind Direction,Wind SpeedMPH,Gust SpeedMPH,PrecipitationIn,Events,Conditions,WindDirDegrees,DateUTC
12:55 AM,51.4,44.4,77,30.25,10.0,NNW,3.5,-,N/A,,Mostly Cloudy,340,2013-01-20 06:55:00
1:55 AM,50.9,43.9,77,30.25,10.0,Calm,Calm,-,N/A,,Mostly Cloudy,0,2013-01-20 07:55:00
2:55 AM,47.8,43.7,86,30.24,10.0,Calm,Calm,-,N/A,,Mostly Cloudy,0,2013-01-20 08:55:00
3:55 AM,45.9,42.3,87,30.23,10.0,Calm,Calm,-,N/A,,Mostly Cloudy,0,2013-01-20 09:55:00
4:55 AM,45.0,41.7,88,30.23,10.0,Calm,Calm,-,N/A,,Partly Cloudy,0,2013-01-20 10:55:00
5:55 AM,45.1,41.7,88,30.24,10.0,Calm,Calm,-,N/A,,Scattered Clouds,0,2013-01-20 11:55:00
6:55 AM,44.4,41.2,88,30.25,10.0,North,3.5,-,N/A,,Partly Cloudy,350,2013-01-20 12:55:00
7:55 AM,49.3,42.8,78,30.26,10.0,North,4.6,-,N/A,,Partly Cloudy,10,2013-01-20 13:55:00
8:55 AM,56.7,43.7,62,30.26,10.0,NNE,5.8,-,N/A,,Partly Cloudy,20,2013-01-20 14:55:00
9:55 AM,61.9,44.1,52,30.27,10.0,North,6.9,-,N/A,,Partly Cloudy,10,2013-01-20 15:55:00
10:55 AM,64.0,42.8,46,30.24,10.0,NNE,10.4,-,N/A,,Clear,20,2013-01-20 16:55:00
11:55 AM,64.9,42.4,44,30.20,10.0,North,8.1,-,N/A,,Clear,10,2013-01-20 17:55:00
12:55 PM,65.5,41.4,41,30.17,10.0,Calm,Calm,-,N/A,,Clear,0,2013-01-20 18:55:00
1:55 PM,65.5,43.0,44,30.15,10.0,SSE,4.6,-,N/A,,Partly Cloudy,160,2013-01-20 19:55:00
2:55 PM,64.4,44.6,49,30.13,10.0,SSW,11.5,-,N/A,,Partly Cloudy,200,2013-01-20 20:55:00
3:55 PM,63.5,45.5,52,30.12,10.0,SW,8.1,-,N/A,,Partly Cloudy,220,2013-01-20 21:55:00
4:55 PM,60.6,46.6,60,30.13,10.0,SW,5.8,-,N/A,,Partly Cloudy,230,2013-01-20 22:55:00
5:55 PM,56.3,46.4,69,30.15,10.0,Calm,Calm,-,N/A,,Partly Cloudy,0,2013-01-20 23:55:00
6:55 PM,52.9,45.9,77,30.14,10.0,West,3.5,-,N/A,,Partly Cloudy,280,2013-01-21 00:55:00
7:55 PM,50.2,45.0,82,30.16,10.0,West,6.9,-,N/A,,Clear,280,2013-01-21 01:55:00
8:55 PM,48.2,44.2,86,30.17,10.0,NW,2.3,-,N/A,,Clear,310,2013-01-21 02:55:00
9:55 PM,47.7,44.6,89,30.17,10.0,NW,4.6,-,N/A,,Partly Cloudy,310,2013-01-21 03:55:00
10:55 PM,47.5,44.8,90,30.16,10.0,WNW,3.5,-,N/A,,Scattered Clouds,290,2013-01-21 04:55:00
11:55 PM,46.4,43.9,91,30.15,10.0,WNW,4.6,-,N/A,,Partly Cloudy,300,2013-01-21 05:55:00